Weather History for Havre, MT

Change the Weather History Date:

Friday, January 24, 2014

  Actual Average Record
Temperature  
Mean Temperature 43 °F 19 °F  
Max Temperature 53 °F 29 °F 64 °F (2005)
Min Temperature 32 °F 8 °F -52 °F (1969)
Degree Days  
Heating Degree Days 22 46  
Month to date heating degree days 906 1136  
Since 1 July heating degree days 4449 4602  
Cooling Degree Days 0 0  
Month to date cooling degree days 0 0  
Year to date cooling degree days 0 0  
Moisture  
Dew Point 30 °F    
Average Humidity 70    
Maximum Humidity 89    
Minimum Humidity 50    
Precipitation  
Precipitation 0.00 in 0.01 in 0.44 in (1931)
Month to date precipitation 0.18 0.27  
Year to date precipitation 0.18 0.27  
Snow  
Snow 0.00 in 0.20 in 4.20 in (1952)
Month to date snowfall 2.2 5.8  
Since 1 July snowfall 28.2 20.8  
Snow Depth 0.00 in    
Sea Level Pressure  
Sea Level Pressure 30.20 in    
Wind  
Wind Speed 16 mph (WSW)    
Max Wind Speed 31 mph    
Max Gust Speed 40 mph    
Visibility 10 miles    
Events      
T = Trace of Precipitation, MM = Missing Value Source: NWS Daily Summary

Daily Weather History Graph

Daily Weather History Graph

Search for Another Location

Airport:

Trip Planner

Search our weather history database for the weather conditions in past years. The results will help you decide how hot, cold, wet, or windy it might be!

Date:

Astronomy

Jan. 24, 2014 Rise Set
Actual Time 7:57 AM MST 5:05 PM MST
Civil Twilight 7:23 AM MST 5:39 PM MST
Nautical Twilight 6:44 AM MST 6:17 PM MST
Astronomical Twilight 6:07 AM MST 6:55 PM MST
Moon 1:21 AM MST (1/24) 11:30 AM MST (1/24)
Length of Visible Light 10h 16m
Length of Day
9h 07m
Last Quarter, 44% of the Moon is Illuminated
Jan 24
Last Quarter
Jan 30
New
Feb 6
First Quarter
Feb 14
Full
Feb 22
Last Quarter

Hourly Weather History & Observations

Time (MST) Temp. Windchill Dew Point Humidity Pressure Visibility Wind Dir Wind Speed Gust Speed Precip Events Conditions
12:53 AM 41.0 °F 32.2 °F 28.0 °F 60% 30.23 in 10.0 mi WSW 18.4 mph 26.5 mph N/A   Overcast
1:53 AM 37.9 °F 27.1 °F 28.0 °F 68% 30.22 in 10.0 mi SW 23.0 mph 28.8 mph N/A   Mostly Cloudy
2:53 AM 37.0 °F 25.9 °F 28.0 °F 70% 30.22 in 10.0 mi SW 23.0 mph - N/A   Clear
3:53 AM 37.0 °F 26.7 °F 28.0 °F 70% 30.19 in 10.0 mi SW 19.6 mph 28.8 mph N/A   Clear
4:53 AM 37.9 °F 26.8 °F 28.0 °F 68% 30.18 in 10.0 mi SW 24.2 mph 33.4 mph N/A   Clear
5:53 AM 37.0 °F 27.4 °F 28.0 °F 70% 30.18 in 10.0 mi WSW 17.3 mph - N/A   Clear
6:53 AM 37.0 °F 27.7 °F 27.0 °F 67% 30.18 in 10.0 mi WSW 16.1 mph 24.2 mph N/A   Clear
7:53 AM 37.0 °F 27.7 °F 27.0 °F 67% 30.19 in 10.0 mi SW 16.1 mph - N/A   Clear
8:53 AM 37.9 °F 27.1 °F 27.0 °F 65% 30.17 in 10.0 mi SW 23.0 mph 29.9 mph N/A   Clear
9:53 AM 39.9 °F 30.5 °F 28.0 °F 63% 30.16 in 10.0 mi SW 19.6 mph - N/A   Clear
10:53 AM 42.1 °F 33.3 °F 28.9 °F 60% 30.19 in 10.0 mi SSW 19.6 mph - N/A   Clear
11:53 AM 46.0 °F 39.6 °F 32.0 °F 58% 30.19 in 10.0 mi SW 15.0 mph - N/A   Clear
12:53 PM 50.0 °F - 33.1 °F 52% 30.17 in 10.0 mi West 19.6 mph - N/A   Clear
1:53 PM 52.0 °F - 33.1 °F 49% 30.17 in 10.0 mi West 16.1 mph - N/A   Partly Cloudy
2:53 PM 51.1 °F - 34.0 °F 52% 30.17 in 10.0 mi West 13.8 mph - N/A   Clear
3:53 PM 48.9 °F - 33.1 °F 54% 30.18 in 10.0 mi West 12.7 mph - N/A   Clear
4:53 PM 45.0 °F 39.3 °F 33.1 °F 63% 30.19 in 10.0 mi West 11.5 mph - N/A   Clear
5:53 PM 41.0 °F 33.1 °F 32.0 °F 70% 30.20 in 10.0 mi SW 15.0 mph - N/A   Clear
6:53 PM 37.0 °F 30.4 °F 30.9 °F 79% 30.23 in 10.0 mi WSW 9.2 mph - N/A   Clear
7:53 PM 39.0 °F 31.8 °F 30.9 °F 73% 30.23 in 10.0 mi WSW 11.5 mph - N/A   Clear
8:53 PM 35.1 °F 26.4 °F 30.0 °F 82% 30.23 in 10.0 mi WSW 12.7 mph - N/A   Clear
9:53 PM 35.1 °F 27.9 °F 30.9 °F 85% 30.23 in 10.0 mi West 9.2 mph - N/A   Scattered Clouds
10:53 PM 33.1 °F 26.1 °F 30.0 °F 89% 30.23 in 10.0 mi WSW 8.1 mph - N/A   Clear
11:53 PM 34.0 °F 25.5 °F 28.9 °F 82% 30.23 in 10.0 mi SW 11.5 mph - N/A   Clear